Year,Month,Day,Hour,Minute,Value (Times are PST for temperature in C)
2011,04,23,00,00,5.30
2011,04,23,00,01,5.40
2011,04,23,00,02,5.40
2011,04,23,00,03,5.30
2011,04,23,00,04,5.30
2011,04,23,00,05,5.30
2011,04,23,00,06,5.30
2011,04,23,00,07,5.30
2011,04,23,00,08,5.30
2011,04,23,00,09,5.30
2011,04,23,00,10,5.30
2011,04,23,00,11,5.30
2011,04,23,00,12,5.30
2011,04,23,00,13,5.30
2011,04,23,00,14,5.30
2011,04,23,00,15,5.30
2011,04,23,00,16,5.20
2011,04,23,00,17,5.20
2011,04,23,00,18,5.20
2011,04,23,00,19,5.30
2011,04,23,00,20,5.30
2011,04,23,00,21,5.30
2011,04,23,00,22,5.30
2011,04,23,00,23,5.30
2011,04,23,00,24,5.30
2011,04,23,00,25,5.20
2011,04,23,00,26,5.20
2011,04,23,00,27,5.20
2011,04,23,00,28,5.20
2011,04,23,00,29,5.10
2011,04,23,00,30,5.10
2011,04,23,00,31,5.10
2011,04,23,00,32,5.00
2011,04,23,00,33,5.00
2011,04,23,00,34,5.00
2011,04,23,00,35,4.90
2011,04,23,00,36,4.90
2011,04,23,00,37,4.90
2011,04,23,00,38,4.90
2011,04,23,00,39,4.90
2011,04,23,00,40,4.90
2011,04,23,00,41,4.90
2011,04,23,00,42,4.90
2011,04,23,00,43,4.90
2011,04,23,00,44,4.90
2011,04,23,00,45,4.90
2011,04,23,00,46,4.90
2011,04,23,00,47,4.90
2011,04,23,00,48,4.90
2011,04,23,00,49,4.90
2011,04,23,00,50,4.90
2011,04,23,00,51,4.90
2011,04,23,00,52,4.90
2011,04,23,00,53,4.90
2011,04,23,00,54,4.90
2011,04,23,00,55,4.90
2011,04,23,00,56,4.90
2011,04,23,00,57,4.90
2011,04,23,00,58,4.90
2011,04,23,00,59,4.90
2011,04,23,01,00,4.90
2011,04,23,01,01,4.90
2011,04,23,01,02,4.90
2011,04,23,01,03,4.90
2011,04,23,01,04,5.00
2011,04,23,01,05,5.00
2011,04,23,01,06,5.00
2011,04,23,01,07,5.00
2011,04,23,01,08,5.00
2011,04,23,01,09,4.90
2011,04,23,01,10,5.00
2011,04,23,01,11,5.00
2011,04,23,01,12,5.10
2011,04,23,01,13,5.10
2011,04,23,01,14,5.20
2011,04,23,01,15,5.30
2011,04,23,01,16,5.40
2011,04,23,01,17,5.50
2011,04,23,01,18,5.60
2011,04,23,01,19,5.60
2011,04,23,01,20,5.50
2011,04,23,01,21,5.40
2011,04,23,01,22,5.40
2011,04,23,01,23,5.30
2011,04,23,01,24,5.30
2011,04,23,01,25,5.20
2011,04,23,01,26,5.10
2011,04,23,01,27,4.90
2011,04,23,01,28,4.80
2011,04,23,01,29,4.70
2011,04,23,01,30,4.70
2011,04,23,01,31,4.60
2011,04,23,01,32,4.50
2011,04,23,01,33,4.40
2011,04,23,01,34,4.40
2011,04,23,01,35,4.40
2011,04,23,01,36,4.30
2011,04,23,01,37,4.30
2011,04,23,01,38,4.20
2011,04,23,01,39,4.20
2011,04,23,01,40,4.20
2011,04,23,01,41,4.10
2011,04,23,01,42,4.10
2011,04,23,01,43,4.10
2011,04,23,01,44,4.10
2011,04,23,01,45,4.10
2011,04,23,01,46,4.00
2011,04,23,01,47,4.00
2011,04,23,01,48,4.00
2011,04,23,01,49,4.00
2011,04,23,01,50,3.90
2011,04,23,01,51,3.90
2011,04,23,01,52,3.90
2011,04,23,01,53,3.90
2011,04,23,01,54,3.90
2011,04,23,01,55,3.80
2011,04,23,01,56,3.80
2011,04,23,01,57,3.80
2011,04,23,01,58,3.80
2011,04,23,01,59,3.80
2011,04,23,02,00,3.80
2011,04,23,02,01,3.70
2011,04,23,02,02,3.70
2011,04,23,02,03,3.70
2011,04,23,02,04,3.70
2011,04,23,02,05,3.70
2011,04,23,02,06,3.70
2011,04,23,02,07,3.60
2011,04,23,02,08,3.60
2011,04,23,02,09,3.60
2011,04,23,02,10,3.60
2011,04,23,02,11,3.60
2011,04,23,02,12,3.50
2011,04,23,02,13,3.50
2011,04,23,02,14,3.50
2011,04,23,02,15,3.50
2011,04,23,02,16,3.50
2011,04,23,02,17,3.50
2011,04,23,02,18,3.50
2011,04,23,02,19,3.50
2011,04,23,02,20,3.50
2011,04,23,02,21,3.50
2011,04,23,02,22,3.50
2011,04,23,02,23,3.50
2011,04,23,02,24,3.50
2011,04,23,02,25,3.50
2011,04,23,02,26,3.40
2011,04,23,02,27,3.40
2011,04,23,02,28,3.40
2011,04,23,02,29,3.40
2011,04,23,02,30,3.40
2011,04,23,02,31,3.40
2011,04,23,02,32,3.40
2011,04,23,02,33,3.40
2011,04,23,02,34,3.40
2011,04,23,02,35,3.30
2011,04,23,02,36,3.30
2011,04,23,02,37,3.30
2011,04,23,02,38,3.30
2011,04,23,02,39,3.30
2011,04,23,02,40,3.30
2011,04,23,02,41,3.20
2011,04,23,02,42,3.20
2011,04,23,02,43,3.20
2011,04,23,02,44,3.20
2011,04,23,02,45,3.20
2011,04,23,02,46,3.10
2011,04,23,02,47,3.10
2011,04,23,02,48,3.10
2011,04,23,02,49,3.00
2011,04,23,02,50,3.00
2011,04,23,02,51,3.00
2011,04,23,02,52,2.90
2011,04,23,02,53,2.90
2011,04,23,02,54,2.90
2011,04,23,02,55,2.90
2011,04,23,02,56,2.90
2011,04,23,02,57,2.90
2011,04,23,02,58,2.90
2011,04,23,02,59,2.90
2011,04,23,03,00,2.90
2011,04,23,03,01,2.90
2011,04,23,03,02,2.90
2011,04,23,03,03,2.90
2011,04,23,03,04,2.90
2011,04,23,03,05,2.90
2011,04,23,03,06,2.90
2011,04,23,03,07,2.90
2011,04,23,03,08,2.90
2011,04,23,03,09,2.90
2011,04,23,03,10,2.80
2011,04,23,03,11,2.80
2011,04,23,03,12,2.80
2011,04,23,03,13,2.80
2011,04,23,03,14,2.80
2011,04,23,03,15,2.80
2011,04,23,03,16,2.80
2011,04,23,03,17,2.80
2011,04,23,03,18,2.80
2011,04,23,03,19,2.80
2011,04,23,03,20,2.80
2011,04,23,03,21,2.80
2011,04,23,03,22,2.80
2011,04,23,03,23,2.80
2011,04,23,03,24,2.80
2011,04,23,03,25,2.80
2011,04,23,03,26,2.70
2011,04,23,03,27,2.70
2011,04,23,03,28,2.70
2011,04,23,03,29,2.70
2011,04,23,03,30,2.80
2011,04,23,03,31,2.80
2011,04,23,03,32,2.80
2011,04,23,03,33,2.80
2011,04,23,03,34,2.80
2011,04,23,03,35,2.80
2011,04,23,03,36,2.80
2011,04,23,03,37,2.80
2011,04,23,03,38,2.80
2011,04,23,03,39,2.80
2011,04,23,03,40,2.70
2011,04,23,03,41,2.70
2011,04,23,03,42,2.70
2011,04,23,03,43,2.80
2011,04,23,03,44,2.80
2011,04,23,03,45,2.90
2011,04,23,03,46,3.10
2011,04,23,03,47,3.20
2011,04,23,03,48,3.20
2011,04,23,03,49,3.30
2011,04,23,03,50,3.30
2011,04,23,03,51,3.30
2011,04,23,03,52,3.40
2011,04,23,03,53,3.40
2011,04,23,03,54,3.40
2011,04,23,03,55,3.40
2011,04,23,03,56,3.40
2011,04,23,03,57,3.50
2011,04,23,03,58,3.50
2011,04,23,03,59,3.60
2011,04,23,04,00,3.60
2011,04,23,04,01,3.70
2011,04,23,04,02,3.70
2011,04,23,04,03,3.80
2011,04,23,04,04,3.80
2011,04,23,04,05,3.80
2011,04,23,04,06,3.80
2011,04,23,04,07,3.90
2011,04,23,04,08,3.90
2011,04,23,04,09,3.90
2011,04,23,04,10,3.90
2011,04,23,04,11,3.90
2011,04,23,04,12,4.00
2011,04,23,04,13,4.00
2011,04,23,04,14,4.10
2011,04,23,04,15,4.00
2011,04,23,04,16,4.00
2011,04,23,04,17,3.90
2011,04,23,04,18,3.90
2011,04,23,04,19,3.80
2011,04,23,04,20,3.70
2011,04,23,04,21,3.70
2011,04,23,04,22,3.60
2011,04,23,04,23,3.50
2011,04,23,04,24,3.50
2011,04,23,04,25,3.40
2011,04,23,04,26,3.30
2011,04,23,04,27,3.30
2011,04,23,04,28,3.20
2011,04,23,04,29,3.20
2011,04,23,04,30,3.10
2011,04,23,04,31,3.10
2011,04,23,04,32,3.10
2011,04,23,04,33,3.00
2011,04,23,04,34,3.10
2011,04,23,04,35,3.10
2011,04,23,04,36,3.10
2011,04,23,04,37,3.10
2011,04,23,04,38,3.10
2011,04,23,04,39,3.10
2011,04,23,04,40,3.10
2011,04,23,04,41,3.10
2011,04,23,04,42,3.00
2011,04,23,04,43,3.00
2011,04,23,04,44,2.90
2011,04,23,04,45,2.90
2011,04,23,04,46,2.90
2011,04,23,04,47,2.90
2011,04,23,04,48,3.00
2011,04,23,04,49,3.00
2011,04,23,04,50,3.00
2011,04,23,04,51,3.00
2011,04,23,04,52,3.00
2011,04,23,04,53,3.00
2011,04,23,04,54,3.00
2011,04,23,04,55,3.10
2011,04,23,04,56,3.00
2011,04,23,04,57,3.00
2011,04,23,04,58,3.00
2011,04,23,04,59,3.00
2011,04,23,05,00,2.90
2011,04,23,05,01,2.90
2011,04,23,05,02,2.90
2011,04,23,05,03,2.90
2011,04,23,05,04,2.90
2011,04,23,05,05,2.80
2011,04,23,05,06,2.80
2011,04,23,05,07,2.80
2011,04,23,05,08,2.80
2011,04,23,05,09,2.70
2011,04,23,05,10,2.70
2011,04,23,05,11,2.70
2011,04,23,05,12,2.60
2011,04,23,05,13,2.60
2011,04,23,05,14,2.60
2011,04,23,05,15,2.60
2011,04,23,05,16,2.60
2011,04,23,05,17,2.60
2011,04,23,05,18,2.60
2011,04,23,05,19,2.60
2011,04,23,05,20,2.60
2011,04,23,05,21,2.60
2011,04,23,05,22,2.60
2011,04,23,05,23,2.60
2011,04,23,05,24,2.60
2011,04,23,05,25,2.60
2011,04,23,05,26,2.60
2011,04,23,05,27,2.50
2011,04,23,05,28,2.50
2011,04,23,05,29,2.40
2011,04,23,05,30,2.40
2011,04,23,05,31,2.40
2011,04,23,05,32,2.40
2011,04,23,05,33,2.40
2011,04,23,05,34,2.40
2011,04,23,05,35,2.30
2011,04,23,05,36,2.30
2011,04,23,05,37,2.30
2011,04,23,05,38,2.30
2011,04,23,05,39,2.30
2011,04,23,05,40,2.30
2011,04,23,05,41,2.30
2011,04,23,05,42,2.30
2011,04,23,05,43,2.30
2011,04,23,05,44,2.30
2011,04,23,05,45,2.30
2011,04,23,05,46,2.30
2011,04,23,05,47,2.30
2011,04,23,05,48,2.30
2011,04,23,05,49,2.30
2011,04,23,05,50,2.30
2011,04,23,05,51,2.40
2011,04,23,05,52,2.40
2011,04,23,05,53,2.40
2011,04,23,05,54,2.50
2011,04,23,05,55,2.50
2011,04,23,05,56,2.60
2011,04,23,05,57,2.70
2011,04,23,05,58,2.70
2011,04,23,05,59,2.80
2011,04,23,06,00,2.80
2011,04,23,06,01,2.80
2011,04,23,06,02,2.80
2011,04,23,06,03,2.80
2011,04,23,06,04,2.80
2011,04,23,06,05,2.80
2011,04,23,06,06,2.80
2011,04,23,06,07,2.70
2011,04,23,06,08,2.70
2011,04,23,06,09,2.70
2011,04,23,06,10,2.60
2011,04,23,06,11,2.60
2011,04,23,06,12,2.60
2011,04,23,06,13,2.50
2011,04,23,06,14,2.50
2011,04,23,06,15,2.50
2011,04,23,06,16,2.50
2011,04,23,06,17,2.50
2011,04,23,06,18,2.40
2011,04,23,06,19,2.50
2011,04,23,06,20,2.50
2011,04,23,06,21,2.50
2011,04,23,06,22,2.40
2011,04,23,06,23,2.40
2011,04,23,06,24,2.40
2011,04,23,06,25,2.40
2011,04,23,06,26,2.40
2011,04,23,06,27,2.40
2011,04,23,06,28,2.30
2011,04,23,06,29,2.30
2011,04,23,06,30,2.30
2011,04,23,06,31,2.20
2011,04,23,06,32,2.20
2011,04,23,06,33,2.20
2011,04,23,06,34,2.10
2011,04,23,06,35,2.10
2011,04,23,06,36,2.10
2011,04,23,06,37,2.10
2011,04,23,06,38,2.10
2011,04,23,06,39,2.10
2011,04,23,06,40,2.10
2011,04,23,06,41,2.10
2011,04,23,06,42,2.20
2011,04,23,06,43,2.30
2011,04,23,06,44,2.40
2011,04,23,06,45,2.50
2011,04,23,06,46,2.50
2011,04,23,06,47,2.60
2011,04,23,06,48,2.70
2011,04,23,06,49,2.70
2011,04,23,06,50,2.70
2011,04,23,06,51,2.70
2011,04,23,06,52,2.70
2011,04,23,06,53,2.70
2011,04,23,06,54,2.70
2011,04,23,06,55,2.70
2011,04,23,06,56,2.70
2011,04,23,06,57,2.70
2011,04,23,06,58,2.70
2011,04,23,06,59,2.70
2011,04,23,07,00,2.70
2011,04,23,07,01,2.70
2011,04,23,07,02,2.70
2011,04,23,07,03,2.70
2011,04,23,07,04,2.70
2011,04,23,07,05,2.70
2011,04,23,07,06,2.70
2011,04,23,07,07,2.70
2011,04,23,07,08,2.70
2011,04,23,07,09,2.70
2011,04,23,07,10,2.70
2011,04,23,07,11,2.70
2011,04,23,07,12,2.70
2011,04,23,07,13,2.70
2011,04,23,07,14,2.70
2011,04,23,07,15,2.70
2011,04,23,07,16,2.70
2011,04,23,07,17,2.70
2011,04,23,07,18,2.80
2011,04,23,07,19,2.80
2011,04,23,07,20,2.80
2011,04,23,07,21,2.80
2011,04,23,07,22,2.80
2011,04,23,07,23,2.80
2011,04,23,07,24,2.90
2011,04,23,07,25,2.90
2011,04,23,07,26,2.90
2011,04,23,07,27,2.90
2011,04,23,07,28,2.90
2011,04,23,07,29,3.00
2011,04,23,07,30,3.10
2011,04,23,07,31,3.10
2011,04,23,07,32,3.10
2011,04,23,07,33,3.10
2011,04,23,07,34,3.20
2011,04,23,07,35,3.20
2011,04,23,07,36,3.20
2011,04,23,07,37,3.30
2011,04,23,07,38,3.30
2011,04,23,07,39,3.30
2011,04,23,07,40,3.30
2011,04,23,07,41,3.40
2011,04,23,07,42,3.50
2011,04,23,07,43,3.50
2011,04,23,07,44,3.50
2011,04,23,07,45,3.60
2011,04,23,07,46,3.70
2011,04,23,07,47,3.70
2011,04,23,07,48,3.80
2011,04,23,07,49,3.80
2011,04,23,07,50,3.90
2011,04,23,07,51,4.00
2011,04,23,07,52,4.00
2011,04,23,07,53,4.00
2011,04,23,07,54,4.10
2011,04,23,07,55,4.10
2011,04,23,07,56,4.10
2011,04,23,07,57,4.10
2011,04,23,07,58,4.20
2011,04,23,07,59,4.20
2011,04,23,08,00,4.30
2011,04,23,08,01,4.40
2011,04,23,08,02,4.50
2011,04,23,08,03,4.60
2011,04,23,08,04,4.60
2011,04,23,08,05,4.70
2011,04,23,08,06,4.70
2011,04,23,08,07,4.80
2011,04,23,08,08,4.90
2011,04,23,08,09,4.90
2011,04,23,08,10,5.00
2011,04,23,08,11,5.00
2011,04,23,08,12,5.10
2011,04,23,08,13,5.10
2011,04,23,08,14,5.10
2011,04,23,08,15,5.20
2011,04,23,08,16,5.20
2011,04,23,08,17,5.30
2011,04,23,08,18,5.40
2011,04,23,08,19,5.50
2011,04,23,08,20,5.50
2011,04,23,08,21,5.60
2011,04,23,08,22,5.60
2011,04,23,08,23,5.70
2011,04,23,08,24,5.70
2011,04,23,08,25,5.80
2011,04,23,08,26,5.80
2011,04,23,08,27,5.90
2011,04,23,08,28,6.00
2011,04,23,08,29,6.00
2011,04,23,08,30,6.10
2011,04,23,08,31,6.20
2011,04,23,08,32,6.20
2011,04,23,08,33,6.30
2011,04,23,08,34,6.30
2011,04,23,08,35,6.30
2011,04,23,08,36,6.30
2011,04,23,08,37,6.40
2011,04,23,08,38,6.40
2011,04,23,08,39,6.50
2011,04,23,08,40,6.60
2011,04,23,08,41,6.70
2011,04,23,08,42,6.80
2011,04,23,08,43,6.90
2011,04,23,08,44,7.00
2011,04,23,08,45,7.10
2011,04,23,08,46,7.20
2011,04,23,08,47,7.30
2011,04,23,08,48,7.40
2011,04,23,08,49,7.40
2011,04,23,08,50,7.50
2011,04,23,08,51,7.60
2011,04,23,08,52,7.70
2011,04,23,08,53,7.80
2011,04,23,08,54,7.90
2011,04,23,08,55,8.00
2011,04,23,08,56,8.10
2011,04,23,08,57,8.10
2011,04,23,08,58,8.20
2011,04,23,08,59,8.30
2011,04,23,09,00,8.30
2011,04,23,09,01,8.30
2011,04,23,09,02,8.30
2011,04,23,09,03,8.30
2011,04,23,09,04,8.40
2011,04,23,09,05,8.50
2011,04,23,09,06,8.50
2011,04,23,09,07,8.60
2011,04,23,09,08,8.60
2011,04,23,09,09,8.70
2011,04,23,09,10,8.70
2011,04,23,09,11,8.70
2011,04,23,09,12,8.80
2011,04,23,09,13,8.80
2011,04,23,09,14,8.80
2011,04,23,09,15,8.80
2011,04,23,09,16,8.90
2011,04,23,09,17,8.90
2011,04,23,09,18,9.00
2011,04,23,09,19,9.00
2011,04,23,09,20,9.10
2011,04,23,09,21,9.10
2011,04,23,09,22,9.20
2011,04,23,09,23,9.20
2011,04,23,09,24,9.20
2011,04,23,09,25,9.30
2011,04,23,09,26,9.40
2011,04,23,09,27,9.40
2011,04,23,09,28,9.40
2011,04,23,09,29,9.50
2011,04,23,09,30,9.50
2011,04,23,09,31,9.50
2011,04,23,09,32,9.60
2011,04,23,09,33,9.60
2011,04,23,09,34,9.60
2011,04,23,09,35,9.60
2011,04,23,09,36,9.70
2011,04,23,09,37,9.80
2011,04,23,09,38,9.80
2011,04,23,09,39,9.80
2011,04,23,09,40,9.80
2011,04,23,09,41,9.90
2011,04,23,09,42,9.90
2011,04,23,09,43,9.90
2011,04,23,09,44,10.00
2011,04,23,09,45,10.10
2011,04,23,09,46,10.10
2011,04,23,09,47,10.20
2011,04,23,09,48,10.30
2011,04,23,09,49,10.30
2011,04,23,09,50,10.40
2011,04,23,09,51,10.50
2011,04,23,09,52,10.50
2011,04,23,09,53,10.60
2011,04,23,09,54,10.60
2011,04,23,09,55,10.60
2011,04,23,09,56,10.60
2011,04,23,09,57,10.60
2011,04,23,09,58,10.70
2011,04,23,09,59,10.80
2011,04,23,10,00,10.90
2011,04,23,10,01,11.00
2011,04,23,10,02,11.00
2011,04,23,10,03,11.10
2011,04,23,10,04,11.10
2011,04,23,10,05,11.10
2011,04,23,10,06,11.10
2011,04,23,10,07,11.10
2011,04,23,10,08,10.90
2011,04,23,10,09,10.90
2011,04,23,10,10,10.80
2011,04,23,10,11,10.70
2011,04,23,10,12,10.70
2011,04,23,10,13,10.70
2011,04,23,10,14,10.80
2011,04,23,10,15,10.80
2011,04,23,10,16,10.80
2011,04,23,10,17,10.80
2011,04,23,10,18,10.70
2011,04,23,10,19,10.70
2011,04,23,10,20,10.70
2011,04,23,10,21,10.70
2011,04,23,10,22,10.80
2011,04,23,10,23,10.80
2011,04,23,10,24,10.90
2011,04,23,10,25,11.00
2011,04,23,10,26,11.10
2011,04,23,10,27,11.10
2011,04,23,10,28,11.10
2011,04,23,10,29,11.10
2011,04,23,10,30,11.20
2011,04,23,10,31,11.30
2011,04,23,10,32,11.40
2011,04,23,10,33,11.50
2011,04,23,10,34,11.60
2011,04,23,10,35,11.70
2011,04,23,10,36,11.70
2011,04,23,10,37,11.70
2011,04,23,10,38,11.70
2011,04,23,10,39,11.70
2011,04,23,10,40,11.70
2011,04,23,10,41,11.70
2011,04,23,10,42,11.60
2011,04,23,10,43,11.60
2011,04,23,10,44,11.70
2011,04,23,10,45,11.70
2011,04,23,10,46,11.80
2011,04,23,10,47,11.80
2011,04,23,10,48,11.80
2011,04,23,10,49,11.80
2011,04,23,10,50,11.80
2011,04,23,10,51,11.90
2011,04,23,10,52,12.00
2011,04,23,10,53,12.10
2011,04,23,10,54,12.10
2011,04,23,10,55,12.20
2011,04,23,10,56,12.20
2011,04,23,10,57,12.20
2011,04,23,10,58,12.10
2011,04,23,10,59,12.10
2011,04,23,11,00,12.10
2011,04,23,11,01,12.10
2011,04,23,11,02,12.10
2011,04,23,11,03,12.20
2011,04,23,11,04,12.30
2011,04,23,11,05,12.50
2011,04,23,11,06,12.60
2011,04,23,11,07,12.70
2011,04,23,11,08,12.70
2011,04,23,11,09,12.70
2011,04,23,11,10,12.80
2011,04,23,11,11,12.90
2011,04,23,11,12,12.90
2011,04,23,11,13,12.90
2011,04,23,11,14,13.00
2011,04,23,11,15,13.10
2011,04,23,11,16,13.10
2011,04,23,11,17,13.20
2011,04,23,11,18,13.20
2011,04,23,11,19,13.30
2011,04,23,11,20,13.30
2011,04,23,11,21,13.30
2011,04,23,11,22,13.40
2011,04,23,11,23,13.40
2011,04,23,11,24,13.40
2011,04,23,11,25,13.50
2011,04,23,11,26,13.50
2011,04,23,11,27,13.50
2011,04,23,11,28,13.40
2011,04,23,11,29,13.40
2011,04,23,11,30,13.40
2011,04,23,11,31,13.50
2011,04,23,11,32,13.50
2011,04,23,11,33,13.50
2011,04,23,11,34,13.60
2011,04,23,11,35,13.70
2011,04,23,11,36,13.70
2011,04,23,11,37,13.80
2011,04,23,11,38,13.80
2011,04,23,11,39,13.80
2011,04,23,11,40,13.80
2011,04,23,11,41,13.80
2011,04,23,11,42,13.80
2011,04,23,11,43,13.80
2011,04,23,11,44,13.80
2011,04,23,11,45,13.80
2011,04,23,11,46,13.90
2011,04,23,11,47,13.90
2011,04,23,11,48,14.00
2011,04,23,11,49,14.10
2011,04,23,11,50,14.20
2011,04,23,11,51,14.20
2011,04,23,11,52,14.20
2011,04,23,11,53,14.30
2011,04,23,11,54,14.30
2011,04,23,11,55,14.30
2011,04,23,11,56,14.40
2011,04,23,11,57,14.50
2011,04,23,11,58,14.40
2011,04,23,11,59,14.40
2011,04,23,12,00,14.40
2011,04,23,12,01,14.50
2011,04,23,12,02,14.50
2011,04,23,12,03,14.60
2011,04,23,12,04,14.60
2011,04,23,12,05,14.70
2011,04,23,12,06,14.70
2011,04,23,12,07,14.70
2011,04,23,12,08,14.70
2011,04,23,12,09,14.80
2011,04,23,12,10,14.80
2011,04,23,12,11,14.90
2011,04,23,12,12,14.80
2011,04,23,12,13,14.80
2011,04,23,12,14,14.80
2011,04,23,12,15,14.80
2011,04,23,12,16,14.90
2011,04,23,12,17,15.00
2011,04,23,12,18,15.10
2011,04,23,12,19,15.10
2011,04,23,12,20,15.10
2011,04,23,12,21,15.20
2011,04,23,12,22,15.10
2011,04,23,12,23,15.00
2011,04,23,12,24,14.90
2011,04,23,12,25,14.70
2011,04,23,12,26,14.60
2011,04,23,12,27,14.30
2011,04,23,12,28,13.90
2011,04,23,12,29,13.60
2011,04,23,12,30,13.30
2011,04,23,12,31,13.20
2011,04,23,12,32,13.10
2011,04,23,12,33,12.90
2011,04,23,12,34,12.70
2011,04,23,12,35,12.50
2011,04,23,12,36,12.50
2011,04,23,12,37,12.40
2011,04,23,12,38,12.40
2011,04,23,12,39,12.50
2011,04,23,12,40,12.50
2011,04,23,12,41,12.40
2011,04,23,12,42,12.40
2011,04,23,12,43,12.30
2011,04,23,12,44,12.20
2011,04,23,12,45,12.20
2011,04,23,12,46,12.20
2011,04,23,12,47,12.30
2011,04,23,12,48,12.30
2011,04,23,12,49,12.30
2011,04,23,12,50,12.30
2011,04,23,12,51,12.30
2011,04,23,12,52,12.30
2011,04,23,12,53,12.10
2011,04,23,12,54,12.00
2011,04,23,12,55,11.90
2011,04,23,12,56,11.90
2011,04,23,12,57,11.90
2011,04,23,12,58,11.80
2011,04,23,12,59,11.80
2011,04,23,13,00,11.70
2011,04,23,13,01,11.70
2011,04,23,13,02,11.70
2011,04,23,13,03,11.80
2011,04,23,13,04,11.80
2011,04,23,13,05,11.90
2011,04,23,13,06,12.00
2011,04,23,13,07,12.10
2011,04,23,13,08,12.10
2011,04,23,13,09,12.10
2011,04,23,13,10,12.00
2011,04,23,13,11,11.90
2011,04,23,13,12,11.90
2011,04,23,13,13,11.80
2011,04,23,13,14,11.80
2011,04,23,13,15,11.80
2011,04,23,13,16,11.90
2011,04,23,13,17,11.90
2011,04,23,13,18,11.90
2011,04,23,13,19,12.00
2011,04,23,13,20,12.10
2011,04,23,13,21,12.10
2011,04,23,13,22,12.20
2011,04,23,13,23,12.20
2011,04,23,13,24,12.20
2011,04,23,13,25,12.10
2011,04,23,13,26,11.90
2011,04,23,13,27,11.90
2011,04,23,13,28,11.90
2011,04,23,13,29,12.00
2011,04,23,13,30,11.90
2011,04,23,13,31,12.00
2011,04,23,13,32,12.00
2011,04,23,13,33,12.00
2011,04,23,13,34,11.90
2011,04,23,13,35,11.80
2011,04,23,13,36,11.80
2011,04,23,13,37,11.80
2011,04,23,13,38,11.80
2011,04,23,13,39,11.90
2011,04,23,13,40,12.00
2011,04,23,13,41,11.90
2011,04,23,13,42,11.90
2011,04,23,13,43,11.80
2011,04,23,13,44,11.90
2011,04,23,13,45,11.90
2011,04,23,13,46,12.00
2011,04,23,13,47,11.90
2011,04,23,13,48,12.00
2011,04,23,13,49,12.00
2011,04,23,13,50,12.10
2011,04,23,13,51,12.20
2011,04,23,13,52,12.30
2011,04,23,13,53,12.30
2011,04,23,13,54,12.30
2011,04,23,13,55,12.20
2011,04,23,13,56,12.00
2011,04,23,13,57,11.80
2011,04,23,13,58,11.80
2011,04,23,13,59,11.70
2011,04,23,14,00,11.80
2011,04,23,14,01,12.00
2011,04,23,14,02,12.10
2011,04,23,14,03,12.20
2011,04,23,14,04,12.30
2011,04,23,14,05,12.30
2011,04,23,14,06,12.30
2011,04,23,14,07,12.20
2011,04,23,14,08,12.00
2011,04,23,14,09,11.90
2011,04,23,14,10,11.80
2011,04,23,14,11,11.80
2011,04,23,14,12,11.80
2011,04,23,14,13,11.80
2011,04,23,14,14,11.70
2011,04,23,14,15,11.60
2011,04,23,14,16,11.60
2011,04,23,14,17,11.50
2011,04,23,14,18,11.50
2011,04,23,14,19,11.60
2011,04,23,14,20,11.60
2011,04,23,14,21,11.70
2011,04,23,14,22,11.80
2011,04,23,14,23,11.90
2011,04,23,14,24,12.00
2011,04,23,14,25,12.20
2011,04,23,14,26,12.20
2011,04,23,14,27,12.10
2011,04,23,14,28,12.00
2011,04,23,14,29,12.00
2011,04,23,14,30,12.10
2011,04,23,14,31,12.20
2011,04,23,14,32,12.10
2011,04,23,14,33,12.00
2011,04,23,14,34,11.80
2011,04,23,14,35,11.80
2011,04,23,14,36,11.80
2011,04,23,14,37,11.80
2011,04,23,14,38,11.80
2011,04,23,14,39,11.90
2011,04,23,14,40,12.00
2011,04,23,14,41,12.20
2011,04,23,14,42,12.30
2011,04,23,14,43,12.40
2011,04,23,14,44,12.40
2011,04,23,14,45,12.50
2011,04,23,14,46,12.50
2011,04,23,14,47,12.50
2011,04,23,14,48,12.50
2011,04,23,14,49,12.50
2011,04,23,14,50,12.60
2011,04,23,14,51,12.60
2011,04,23,14,52,12.60
2011,04,23,14,53,12.60
2011,04,23,14,54,12.60
2011,04,23,14,55,12.60
2011,04,23,14,56,12.60
2011,04,23,14,57,12.60
2011,04,23,14,58,12.60
2011,04,23,14,59,12.60
2011,04,23,15,00,12.70
2011,04,23,15,01,12.70
2011,04,23,15,02,12.80
2011,04,23,15,03,12.90
2011,04,23,15,04,13.00
2011,04,23,15,05,13.10
2011,04,23,15,06,13.10
2011,04,23,15,07,13.10
2011,04,23,15,08,13.10
2011,04,23,15,09,13.10
2011,04,23,15,10,13.00
2011,04,23,15,11,12.90
2011,04,23,15,12,12.80
2011,04,23,15,13,12.70
2011,04,23,15,14,12.70
2011,04,23,15,15,12.60
2011,04,23,15,16,12.50
2011,04,23,15,17,12.40
2011,04,23,15,18,12.30
2011,04,23,15,19,12.30
2011,04,23,15,20,12.30
2011,04,23,15,21,12.20
2011,04,23,15,22,12.10
2011,04,23,15,23,12.00
2011,04,23,15,24,12.10
2011,04,23,15,25,12.10
2011,04,23,15,26,12.20
2011,04,23,15,27,12.20
2011,04,23,15,28,12.30
2011,04,23,15,29,12.40
2011,04,23,15,30,12.40
2011,04,23,15,31,12.30
2011,04,23,15,32,12.30
2011,04,23,15,33,12.30
2011,04,23,15,34,12.20
2011,04,23,15,35,12.20
2011,04,23,15,36,12.30
2011,04,23,15,37,12.20
2011,04,23,15,38,12.20
2011,04,23,15,39,12.20
2011,04,23,15,40,12.20
2011,04,23,15,41,12.20
2011,04,23,15,42,12.10
2011,04,23,15,43,12.20
2011,04,23,15,44,12.10
2011,04,23,15,45,12.10
2011,04,23,15,46,11.90
2011,04,23,15,47,11.80
2011,04,23,15,48,11.80
2011,04,23,15,49,11.90
2011,04,23,15,50,11.90
2011,04,23,15,51,11.90
2011,04,23,15,52,11.90
2011,04,23,15,53,11.90
2011,04,23,15,54,12.00
2011,04,23,15,55,12.10
2011,04,23,15,56,12.20
2011,04,23,15,57,12.20
2011,04,23,15,58,12.30
2011,04,23,15,59,12.40
2011,04,23,16,00,12.50
2011,04,23,16,01,12.60
2011,04,23,16,02,12.60
2011,04,23,16,03,12.60
2011,04,23,16,04,12.50
2011,04,23,16,05,12.50
2011,04,23,16,06,12.40
2011,04,23,16,07,12.40
2011,04,23,16,08,12.30
2011,04,23,16,09,12.20
2011,04,23,16,10,12.10
2011,04,23,16,11,12.00
2011,04,23,16,12,12.00
2011,04,23,16,13,11.90
2011,04,23,16,14,11.90
2011,04,23,16,15,11.80
2011,04,23,16,16,11.90
2011,04,23,16,17,11.90
2011,04,23,16,18,11.90
2011,04,23,16,19,11.80
2011,04,23,16,20,11.70
2011,04,23,16,21,11.70
2011,04,23,16,22,11.70
2011,04,23,16,23,11.70
2011,04,23,16,24,11.70
2011,04,23,16,25,11.70
2011,04,23,16,26,11.70
2011,04,23,16,27,11.70
2011,04,23,16,28,11.80
2011,04,23,16,29,11.70
2011,04,23,16,30,11.70
2011,04,23,16,31,11.70
2011,04,23,16,32,11.50
2011,04,23,16,33,11.40
2011,04,23,16,34,11.40
2011,04,23,16,35,11.40
2011,04,23,16,36,11.40
2011,04,23,16,37,11.40
2011,04,23,16,38,11.40
2011,04,23,16,39,11.30
2011,04,23,16,40,11.40
2011,04,23,16,41,11.40
2011,04,23,16,42,11.50
2011,04,23,16,43,11.60
2011,04,23,16,44,11.50
2011,04,23,16,45,11.50
2011,04,23,16,46,11.50
2011,04,23,16,47,11.40
2011,04,23,16,48,11.30
2011,04,23,16,49,11.20
2011,04,23,16,50,11.10
2011,04,23,16,51,11.00
2011,04,23,16,52,11.00
2011,04,23,16,53,11.10
2011,04,23,16,54,11.20
2011,04,23,16,55,11.20
2011,04,23,16,56,11.30
2011,04,23,16,57,11.30
2011,04,23,16,58,11.30
2011,04,23,16,59,11.30
2011,04,23,17,00,11.30
2011,04,23,17,01,11.30
2011,04,23,17,02,11.30
2011,04,23,17,03,11.30
2011,04,23,17,04,11.20
2011,04,23,17,05,11.30
2011,04,23,17,06,11.30
2011,04,23,17,07,11.30
2011,04,23,17,08,11.40
2011,04,23,17,09,11.40
2011,04,23,17,10,11.40
2011,04,23,17,11,11.40
2011,04,23,17,12,11.40
2011,04,23,17,13,11.50
2011,04,23,17,14,11.60
2011,04,23,17,15,11.60
2011,04,23,17,16,11.70
2011,04,23,17,17,11.70
2011,04,23,17,18,11.60
2011,04,23,17,19,11.70
2011,04,23,17,20,11.70
2011,04,23,17,21,11.80
2011,04,23,17,22,11.80
2011,04,23,17,23,11.80
2011,04,23,17,24,11.80
2011,04,23,17,25,11.80
2011,04,23,17,26,11.90
2011,04,23,17,27,11.90
2011,04,23,17,28,11.90
2011,04,23,17,29,12.00
2011,04,23,17,30,12.10
2011,04,23,17,31,12.20
2011,04,23,17,32,12.30
2011,04,23,17,33,12.40
2011,04,23,17,34,12.40
2011,04,23,17,35,12.40
2011,04,23,17,36,12.40
2011,04,23,17,37,12.40
2011,04,23,17,38,12.40
2011,04,23,17,39,12.40
2011,04,23,17,40,12.40
2011,04,23,17,41,12.40
2011,04,23,17,42,12.40
2011,04,23,17,43,12.50
2011,04,23,17,44,12.50